TimePST,TemperatureF,Dew PointF,Humidity,Sea Level PressureIn,VisibilityMPH,Wind Direction,Wind SpeedMPH,Gust SpeedMPH,PrecipitationIn,Events,Conditions,WindDirDegrees,DateUTC
12:56 AM,53.1,48.9,86,30.32,10.0,SW,8.1,-,N/A,,Overcast,230,2012-11-05 08:56:00
1:56 AM,52.0,48.0,86,30.35,10.0,WSW,8.1,-,N/A,,Overcast,250,2012-11-05 09:56:00
2:56 AM,51.1,46.0,83,30.38,10.0,NW,8.1,-,N/A,,Overcast,310,2012-11-05 10:56:00
3:56 AM,52.0,44.1,74,30.37,10.0,WNW,3.5,-,N/A,,Overcast,300,2012-11-05 11:56:00
4:56 AM,51.1,46.0,83,30.37,9.0,West,16.1,-,N/A,,Overcast,260,2012-11-05 12:56:00
5:56 AM,51.1,46.0,83,30.40,10.0,WNW,4.6,-,N/A,,Mostly Cloudy,290,2012-11-05 13:56:00
6:56 AM,48.9,44.1,83,30.40,6.0,WSW,3.5,-,N/A,,Haze,250,2012-11-05 14:56:00
7:56 AM,48.9,45.0,86,30.40,8.0,ESE,4.6,-,N/A,,Overcast,120,2012-11-05 15:56:00
8:56 AM,51.1,46.9,86,30.40,10.0,Calm,Calm,-,N/A,,Overcast,0,2012-11-05 16:56:00
9:56 AM,53.1,46.9,80,30.41,9.0,WNW,3.5,-,N/A,,Overcast,300,2012-11-05 17:56:00
10:56 AM,53.1,44.1,71,30.41,9.0,WNW,3.5,-,N/A,,Overcast,300,2012-11-05 18:56:00
11:56 AM,55.0,42.1,62,30.41,10.0,West,4.6,-,N/A,,Overcast,280,2012-11-05 19:56:00
12:56 PM,54.0,44.1,69,30.40,9.0,Calm,Calm,-,N/A,,Overcast,0,2012-11-05 20:56:00
1:56 PM,53.1,44.1,71,30.38,9.0,West,3.5,-,N/A,,Overcast,260,2012-11-05 21:56:00
2:56 PM,52.0,46.0,80,30.37,10.0,West,3.5,-,N/A,,Overcast,280,2012-11-05 22:56:00
3:56 PM,50.0,46.0,86,30.36,10.0,WNW,3.5,-,N/A,,Overcast,300,2012-11-05 23:56:00
4:56 PM,48.0,45.0,89,30.34,10.0,Calm,Calm,-,N/A,,Overcast,0,2012-11-06 00:56:00
5:56 PM,46.9,44.1,90,30.33,10.0,North,3.5,-,N/A,,Overcast,350,2012-11-06 01:56:00
6:56 PM,46.9,43.0,86,30.30,10.0,Calm,Calm,-,N/A,,Overcast,0,2012-11-06 02:56:00
7:56 PM,46.9,43.0,86,30.27,10.0,SE,3.5,-,N/A,,Overcast,130,2012-11-06 03:56:00
8:56 PM,46.0,42.1,86,30.24,10.0,Calm,Calm,-,N/A,,Overcast,0,2012-11-06 04:56:00
9:56 PM,44.1,41.0,89,30.23,10.0,Calm,Calm,-,0.01,,Overcast,0,2012-11-06 05:56:00
10:56 PM,42.1,39.0,89,30.21,10.0,Calm,Calm,-,N/A,,Mostly Cloudy,0,2012-11-06 06:56:00
11:56 PM,43.0,39.9,89,30.20,10.0,Calm,Calm,-,N/A,,Mostly Cloudy,0,2012-11-06 07:56:00